This demonstration page uses our WeatherBlox Daily Observations layout. Learn more.

Left ArrowRight Arrow

Hourly Observations for July 16, 2022

Temp ( °F °C ) Dew Point ( °F °C ) Humidity (%) Winds ( mph kmh ) Pressure ( in mb ) Visibility ( mi km ) Precip ( " mm )
12:59 am 00:59 Partly Cloudy 74 23.3 72 22.2 94 94 NNW 3 6 30.11 1020 9 14 0.00 0.00
1:59 am 01:59 Partly Cloudy with Mist and Fog 74 23.3 73 22.8 97 97 Calm 30.11 1020 6 10 0.00 0.00
2:59 am 02:59 Partly Cloudy with Mist and Fog 73 22.8 72 22.2 96 96 Calm 30.10 1019 4 6 0.00 0.00
3:59 am 03:59 Partly Cloudy with Mist and Fog 73 22.8 72 22.2 96 96 Calm 30.09 1019 5 8 0.00 0.00
4:30 am 04:30 Partly Cloudy with Mist and Fog 73 22.8 72 22.2 96 96 Calm 30.09 1019 2 2 0.00 0.00
4:34 am 04:34 Partly Cloudy with Mist and Fog 73 22.8 72 22.2 96 96 Calm 30.09 1019 1 1 0.00 0.00
4:47 am 04:47 Partly Cloudy with Mist and Fog 73 22.8 72 22.2 96 96 Calm 30.08 1019 1 2 0.00 0.00
4:49 am 04:49 Partly Cloudy with Mist and Fog 73 22.8 72 22.2 96 96 Calm 30.08 1019 2 3 0.00 0.00
4:59 am 04:59 Mostly Clear with Mist and Fog 72 22.2 68 20 87 87 Calm 30.09 1019 3 5 0.00 0.00
5:59 am 05:59 Partly Cloudy with Mist and Fog 72 22.2 69 20.6 91 91 Calm 30.09 1019 3 5 0.00 0.00
6:59 am 06:59 Partly Cloudy with Mist and Fog 72 22.2 70 21.1 94 94 S 3 6 30.11 1020 6 10 0.00 0.00
7:59 am 07:59 Mostly Sunny 73 22.8 72 22.2 96 96 W 3 6 30.11 1020 10 16 0.00 0.00
8:59 am 08:59 Partly Cloudy 75 23.9 72 22.2 90 90 Calm 30.12 1020 10 16 0.00 0.00
9:59 am 09:59 Partly Cloudy 79 26.1 72 22.2 79 79 NNW 7 11 30.11 1020 10 16 0.00 0.00
10:59 am 10:59 Partly Cloudy 81 27.2 72 22.2 74 74 Calm 30.11 1020 10 16 0.00 0.00
11:59 am 11:59 Partly Cloudy 82 27.8 73 22.8 74 74 NE 3 6 30.11 1020 10 16 0.00 0.00
12:59 pm 12:59 Partly Cloudy 82 27.8 72 22.2 72 72 Calm 30.10 1019 10 16 0.00 0.00
1:59 pm 13:59 Mostly Cloudy 82 27.8 73 22.8 74 74 ENE 7 11 30.08 1019 10 16 0.00 0.00
2:59 pm 14:59 Mostly Cloudy 84 28.9 73 22.8 70 70 ENE 10 17 30.05 1018 10 16 0.00 0.00
3:59 pm 15:59 Mostly Cloudy 84 28.9 73 22.8 70 70 ENE 10 17 30.03 1017 10 16 0.00 0.00
4:59 pm 16:59 Mostly Cloudy 86 30 73 22.8 65 65 ENE 10 17 30.02 1017 10 16 0.00 0.00
5:59 pm 17:59 Mostly Cloudy 86 30 73 22.8 65 65 Calm 30.01 1016 10 16 0.00 0.00
6:59 pm 18:59 Mostly Cloudy 86 30 73 22.8 65 65 SSW 7 11 30.01 1016 10 16 0.00 0.00
7:15 pm 19:15 Mostly Cloudy with Thunderstorms 86 30 73 22.8 65 65 WSW 23 37 30.06 1018 2 3 0.00 0.00
7:27 pm 19:27 Mostly Cloudy with Thunderstorms 86 30 73 22.8 65 65 SW 9 15 30.04 1017 6 10 0.25 6.35
7:59 pm 19:59 Mostly Cloudy 86 30 73 22.8 65 65 W 10 17 30.04 1017 9 14 0.25 6.35
8:59 pm 20:59 Cloudy with Light Rain 78 25.6 70 21.1 76 76 W 7 11 30.06 1018 7 11 0.00 0.00
9:59 pm 21:59 Cloudy with Light Rain 78 25.6 70 21.1 76 76 WSW 5 7 30.08 1019 7 11 0.05 1.27
10:59 pm 22:59 Cloudy 73 22.8 70 21.1 90 90 Calm 30.07 1018 10 16 0.00 0.00
11:59 pm 23:59 Partly Cloudy 72 22.2 71 21.7 97 97 SW 3 6 30.06 1018 8 13 0.00 0.00

Powered by AerisWeather